User: anonymous   Login
Location: Unspecified
(0.0000°N, 0.0000°E)
Time: 22:37:41
(UTC+00:00)
Language:

STARLINK-4772 - Orbit

View from above orbital plane
View from above orbital plane
View from above satellite
View from above satellite

Ground track
Ground track

The orbit is defined by the following mean orbital elements,

1 53932U          26145.45932245 +.00000000 +00000-0 +12544-3 0 00006
2 53932  53.2149 314.5802 0000964 100.2217 259.8884 15.08852039    08
Epoch (UTC): 25 May 2026 11:01:25
Eccentricity: 0.0000964
inclination: 53.2149°
perigee height: 539 km
apogee height: 540 km
right ascension of ascending node: 314.5802°
argument of perigee: 100.2217°
revolutions per day: 15.08852039
mean anomaly at epoch: 259.8884°

The dashed part of the orbit path shows where the satellite is in the earth's shadow,  

DLR